マシェク彗星

C/2024 Y1 ( Masek )

English version
Home page
Updated on January 26, 2025

---------------------------------------------------------------------

・ プロフィール

発見日 2024年12月25日
発見光度 15.3等
発見者 Martin Masek (Liberec, Czech Republic)

・ 軌道要素

Epoch 2024 Oct. 17.0 TT = JDT 2460600.5                                         
T 2024 Nov. 26.89422 TT                                 Veres                   
q   0.8240215            (2000.0)            P               Q                  
z  +0.0070503      Peri.  238.13556     +0.53535320     -0.11666515             
 +/-0.0092084      Node   112.43919     -0.01542633     +0.98889890             
e   0.9941904      Incl.   64.83118     -0.84448741     -0.09202285             
From 62 observations 2024 Dec. 25-31, mean residual 0".7.                       

・ 星図

・ 光度変化

        m1 = 14.5 + 5 logΔ + 10.0 log r

---------------------------------------------------------------------

軌道要素はM.P.E.C. 2024-Y250に掲載されたものです。
星図はステラナビゲータ Ver.11 (アストロアーツ) で作成したものです。
光度グラフはComet for Windowsで作成したものです。

---------------------------------------------------------------------

Copyright(C) Seiichi Yoshida (comet@aerith.net). All rights reserved.